Retour au catalogue

GALAXY 3R

ActifCommunicationsGEO
NORAD 23741·PAYLOAD·🇺🇸 United States

Lancé Dec 15, 1995 depuis Cape Canaveral Space Force Station

Loading…

TLE

FraisSource: Space-Track

Époque: Sep 14, 2026, 09:26 UTC

1 23741U 95069A   26257.39322013 -.00000201  00000-0  00000-0 0  9995
2 23741  13.3730  15.5538 0003992 145.7831 241.4895  1.00323144112718

Suivez GALAXY 3R en temps réel avec AllMySat

Download on the App Store